TimePST,TemperatureF,Dew PointF,Humidity,Sea Level PressureIn,VisibilityMPH,Wind Direction,Wind SpeedMPH,Gust SpeedMPH,PrecipitationIn,Events,Conditions,WindDirDegrees,DateUTC
12:56 AM,50.0,50.0,100,30.20,5.0,Variable,3.5,-,N/A,,Overcast,0,2013-01-25 08:56:00
1:56 AM,48.9,48.9,100,30.20,5.0,East,6.9,-,0.00,Rain,Light Rain,90,2013-01-25 09:56:00
2:25 AM,48.2,48.2,100,30.18,3.0,Variable,5.8,-,0.02,Rain,Rain,0,2013-01-25 10:25:00
2:56 AM,48.9,48.9,100,30.19,8.0,Variable,3.5,-,0.03,Rain,Light Rain,0,2013-01-25 10:56:00
3:27 AM,48.2,48.2,100,30.18,9.0,Variable,3.5,-,0.01,Rain,Light Rain,0,2013-01-25 11:27:00
3:56 AM,48.2,48.2,100,30.17,7.0,East,3.5,-,N/A,Rain,Light Rain,90,2013-01-25 11:56:00
4:24 AM,48.2,48.2,100,30.17,4.0,Calm,Calm,-,0.02,Rain,Light Rain,0,2013-01-25 12:24:00
4:56 AM,48.9,48.9,100,30.17,5.0,Calm,Calm,-,0.02,Rain,Light Rain,0,2013-01-25 12:56:00
5:00 AM,48.2,48.2,100,30.16,4.0,Variable,3.5,-,0.00,Rain,Light Rain,0,2013-01-25 13:00:00
5:07 AM,48.2,48.2,100,30.16,6.0,Variable,3.5,-,0.00,Rain,Light Rain,0,2013-01-25 13:07:00
5:20 AM,48.2,48.2,100,30.15,10.0,Variable,3.5,-,0.00,,Overcast,0,2013-01-25 13:20:00
5:36 AM,48.2,48.2,100,30.15,7.0,SE,4.6,-,0.00,Rain,Light Rain,140,2013-01-25 13:36:00
5:45 AM,48.2,48.2,100,30.15,5.0,ESE,4.6,-,0.00,Rain,Light Rain,110,2013-01-25 13:45:00
5:56 AM,48.9,48.9,100,30.16,5.0,Variable,4.6,-,0.00,,Overcast,0,2013-01-25 13:56:00
6:15 AM,48.2,48.2,100,30.15,3.0,SSE,5.8,-,0.00,Rain,Light Rain,160,2013-01-25 14:15:00
6:22 AM,48.2,48.2,100,30.15,1.8,South,6.9,-,0.00,Rain,Light Rain,180,2013-01-25 14:22:00
6:24 AM,48.2,48.2,100,30.15,0.8,South,8.1,-,0.00,Rain,Light Rain,170,2013-01-25 14:24:00
6:30 AM,48.2,48.2,100,30.14,0.2,SE,3.5,-,0.00,Fog-Rain,Light Rain,140,2013-01-25 14:30:00
6:35 AM,48.2,48.2,100,30.14,0.8,Variable,3.5,-,0.00,Rain,Light Rain,0,2013-01-25 14:35:00
6:37 AM,48.2,48.2,100,30.14,1.5,SSE,4.6,-,0.00,Rain,Light Rain,150,2013-01-25 14:37:00
6:44 AM,48.2,48.2,100,30.14,2.5,Calm,Calm,-,0.01,Rain,Light Rain,0,2013-01-25 14:44:00
6:56 AM,47.8,47.8,100,30.16,2.0,SSW,3.5,-,0.01,Rain,Light Rain,200,2013-01-25 14:56:00
7:06 AM,48.2,48.2,100,30.16,1.2,Calm,Calm,-,0.03,Rain,Rain,0,2013-01-25 15:06:00
7:11 AM,48.2,48.2,100,30.16,1.5,West,3.5,-,0.03,Rain,Light Rain,260,2013-01-25 15:11:00
7:18 AM,48.2,48.2,100,30.17,1.0,Calm,Calm,-,0.03,Rain,Light Rain,0,2013-01-25 15:18:00
7:27 AM,48.2,48.2,100,30.16,0.8,Variable,3.5,-,0.06,Rain,Rain,0,2013-01-25 15:27:00
7:35 AM,48.2,48.2,100,30.16,1.2,SSE,4.6,-,0.07,Rain,Rain,150,2013-01-25 15:35:00
7:56 AM,47.8,47.8,100,30.17,1.5,SSE,3.5,-,0.17,Rain,Heavy Rain,150,2013-01-25 15:56:00
8:09 AM,48.2,48.2,100,30.16,2.0,Calm,Calm,-,0.06,Rain,Heavy Rain,0,2013-01-25 16:09:00
8:25 AM,48.2,48.2,100,30.16,1.2,ESE,4.6,-,0.10,Rain,Rain,120,2013-01-25 16:25:00
8:29 AM,48.2,48.2,100,30.16,0.8,SE,4.6,-,0.12,Rain,Heavy Rain,140,2013-01-25 16:29:00
8:40 AM,48.2,48.2,100,30.16,1.2,SSE,4.6,-,0.16,Rain,Rain,150,2013-01-25 16:40:00
8:56 AM,47.8,47.8,100,30.17,0.8,Variable,4.6,-,0.22,Rain,Rain,0,2013-01-25 16:56:00
9:20 AM,46.4,46.4,100,30.18,0.2,Variable,5.8,-,0.12,Fog-Rain,Rain,0,2013-01-25 17:20:00
9:44 AM,46.4,46.4,100,30.15,0.8,SE,8.1,-,0.20,Rain,Rain,140,2013-01-25 17:44:00
9:48 AM,46.4,46.4,100,30.16,1.2,SSE,8.1,-,0.20,Rain,Rain,150,2013-01-25 17:48:00
9:56 AM,46.9,46.9,100,30.18,0.5,South,8.1,-,0.21,Fog-Rain,Rain,170,2013-01-25 17:56:00
10:04 AM,46.4,46.4,100,30.17,0.2,Variable,5.8,-,0.01,Fog-Rain,Light Rain,0,2013-01-25 18:04:00
10:26 AM,48.2,48.2,100,30.18,0.2,South,5.8,-,0.06,Fog-Rain,Rain,170,2013-01-25 18:26:00
11:16 AM,46.4,46.4,100,30.18,0.2,SE,4.6,-,0.04,Fog-Rain,Light Rain,140,2013-01-25 19:16:00
11:49 AM,46.4,46.4,100,30.16,0.2,SSE,6.9,-,0.08,Fog-Rain,Light Rain,150,2013-01-25 19:49:00
11:56 AM,46.9,46.9,100,30.16,0.2,SE,8.1,-,0.09,Fog-Rain,Light Rain,140,2013-01-25 19:56:00
12:05 PM,46.4,46.4,100,30.15,0.2,SE,8.1,-,0.01,Fog-Rain,Light Rain,140,2013-01-25 20:05:00
12:38 PM,48.2,48.2,100,30.13,0.2,Variable,4.6,-,0.04,Fog-Rain,Light Rain,0,2013-01-25 20:38:00
12:56 PM,47.8,47.8,100,30.13,0.2,SSE,8.1,-,0.06,Fog-Rain,Light Rain,160,2013-01-25 20:56:00
1:56 PM,47.8,47.8,100,30.11,0.2,South,8.1,-,0.03,Fog-Rain,Light Rain,170,2013-01-25 21:56:00
2:56 PM,47.8,47.8,100,30.09,0.2,Variable,5.8,-,0.06,Fog-Rain,Light Rain,0,2013-01-25 22:56:00
3:56 PM,47.8,47.8,100,30.09,0.2,South,6.9,-,0.11,Fog-Rain,Rain,180,2013-01-25 23:56:00
4:56 PM,47.8,47.8,100,30.08,0.2,South,9.2,-,0.09,Fog-Rain,Light Rain,190,2013-01-26 00:56:00
5:56 PM,47.8,-9999,N/A,30.08,0.2,South,4.6,-,0.00,Fog,Fog,170,2013-01-26 01:56:00
6:56 PM,47.8,-9999,N/A,30.07,0.2,Variable,4.6,-,0.00,Fog,Fog,0,2013-01-26 02:56:00
7:41 PM,48.2,-9999,N/A,30.06,0.2,NNW,5.8,-,0.00,Fog,Fog,330,2013-01-26 03:41:00
7:56 PM,46.9,-9999,N/A,30.07,0.5,NW,6.9,-,0.00,Rain,Light Rain,320,2013-01-26 03:56:00
8:03 PM,46.4,-9999,N/A,30.06,1.0,NNW,8.1,-,0.00,Rain,Light Rain,330,2013-01-26 04:03:00
8:07 PM,46.4,-9999,N/A,30.06,1.5,NNW,5.8,-,0.00,Rain,Light Rain,330,2013-01-26 04:07:00
8:16 PM,46.4,-9999,N/A,30.06,2.5,NNW,4.6,-,0.00,,Overcast,340,2013-01-26 04:16:00
8:26 PM,46.4,-9999,N/A,30.06,5.0,NNW,4.6,-,0.00,,Haze,340,2013-01-26 04:26:00
8:56 PM,45.9,-9999,N/A,30.07,5.0,NW,4.6,-,0.00,,Haze,320,2013-01-26 04:56:00
9:03 PM,46.4,-9999,N/A,30.06,1.8,NW,3.5,-,N/A,,Overcast,320,2013-01-26 05:03:00
9:07 PM,46.4,-9999,N/A,30.06,1.0,NW,3.5,-,N/A,,Overcast,320,2013-01-26 05:07:00
9:11 PM,46.4,-9999,N/A,30.06,0.5,Variable,3.5,-,N/A,Fog,Fog,0,2013-01-26 05:11:00
9:45 PM,46.4,-9999,N/A,30.06,0.2,Calm,Calm,-,N/A,Fog,Fog,0,2013-01-26 05:45:00
9:56 PM,45.9,-9999,N/A,30.08,0.2,Calm,Calm,-,N/A,Fog,Fog,0,2013-01-26 05:56:00
10:11 PM,44.6,-9999,N/A,30.07,0.2,Calm,Calm,-,N/A,Fog,Fog,0,2013-01-26 06:11:00
10:33 PM,44.6,-9999,N/A,30.08,0.2,Calm,Calm,-,N/A,Fog,Fog,0,2013-01-26 06:33:00
10:41 PM,44.6,-9999,N/A,30.08,0.5,Calm,Calm,-,N/A,Fog,Fog,0,2013-01-26 06:41:00
10:45 PM,44.6,-9999,N/A,30.08,1.0,Calm,Calm,-,N/A,,Overcast,0,2013-01-26 06:45:00
10:47 PM,44.6,-9999,N/A,30.08,1.5,Calm,Calm,-,N/A,,Overcast,0,2013-01-26 06:47:00
10:56 PM,45.0,-9999,N/A,30.09,1.8,Calm,Calm,-,N/A,,Overcast,0,2013-01-26 06:56:00
11:04 PM,44.6,-9999,N/A,30.09,3.0,SSE,4.6,-,N/A,,Overcast,160,2013-01-26 07:04:00
11:07 PM,44.6,-9999,N/A,30.09,1.5,South,3.5,-,N/A,,Overcast,180,2013-01-26 07:07:00
11:09 PM,44.6,-9999,N/A,30.09,0.8,South,4.6,-,N/A,,Overcast,180,2013-01-26 07:09:00
11:19 PM,44.6,-9999,N/A,30.09,1.2,Variable,3.5,-,N/A,,Overcast,0,2013-01-26 07:19:00
11:21 PM,44.6,-9999,N/A,30.09,2.5,Calm,Calm,-,N/A,,Overcast,0,2013-01-26 07:21:00
11:28 PM,44.6,-9999,N/A,30.09,4.0,Calm,Calm,-,N/A,,Haze,0,2013-01-26 07:28:00
11:42 PM,44.6,-9999,N/A,30.10,1.8,Calm,Calm,-,N/A,,Overcast,0,2013-01-26 07:42:00
11:56 PM,43.9,-9999,N/A,30.11,2.5,Calm,Calm,-,N/A,,Overcast,0,2013-01-26 07:56:00
11:58 PM,44.6,-9999,N/A,30.10,4.0,Calm,Calm,-,N/A,,Haze,0,2013-01-26 07:58:00